Time,TemperatureF,DewpointF,PressureIn,WindDirection,WindDirectionDegrees,WindSpeedMPH,WindSpeedGustMPH,Humidity,HourlyPrecipIn,Conditions,Clouds,dailyrainin,SoftwareType,DateUTC
2013-01-22 00:00:00,7.3,3.8,29.81,SW,236,0.0,0.0,85,0.00,,,0.00,WeatherCatV1.11B39,2013-01-22 05:00:00,
2013-01-22 00:05:00,7.6,4.1,29.80,SW,236,0.0,0.0,85,0.00,,,0.00,WeatherCatV1.11B39,2013-01-22 05:05:00,
2013-01-22 00:10:00,7.8,4.2,29.80,SW,236,0.0,0.0,85,0.00,,,0.00,WeatherCatV1.11B39,2013-01-22 05:10:00,
2013-01-22 00:15:00,8.0,4.4,29.80,SW,236,0.0,0.0,85,0.00,,,0.00,WeatherCatV1.11B39,2013-01-22 05:15:00,
2013-01-22 00:20:00,8.3,4.7,29.80,SW,236,0.0,0.0,85,0.00,,,0.00,WeatherCatV1.11B39,2013-01-22 05:20:00,
2013-01-22 00:25:00,8.6,5.0,29.80,SW,236,0.0,0.0,85,0.00,,,0.00,WeatherCatV1.11B39,2013-01-22 05:25:00,
2013-01-22 00:30:00,8.9,5.3,29.81,SW,236,0.0,0.0,85,0.00,,,0.00,WeatherCatV1.11B39,2013-01-22 05:30:00,
2013-01-22 00:35:00,9.1,5.5,29.81,SW,236,0.0,0.0,85,0.00,,,0.00,WeatherCatV1.11B39,2013-01-22 05:35:00,
2013-01-22 00:40:00,9.3,5.7,29.81,SW,236,0.0,0.0,85,0.00,,,0.00,WeatherCatV1.11B39,2013-01-22 05:40:00,
2013-01-22 00:45:00,9.4,5.6,29.80,SW,236,0.0,0.0,84,0.00,,,0.00,WeatherCatV1.11B39,2013-01-22 05:45:00,
2013-01-22 00:50:00,9.6,5.8,29.80,SW,236,0.0,0.0,84,0.00,,,0.00,WeatherCatV1.11B39,2013-01-22 05:50:00,
2013-01-22 00:54:00,9.7,5.9,29.80,SW,236,0.0,0.0,84,0.00,,,0.00,WeatherCatV1.11B39,2013-01-22 05:54:00,
2013-01-22 00:59:00,9.9,6.1,29.80,SW,236,0.0,0.0,84,0.00,,,0.00,WeatherCatV1.11B39,2013-01-22 05:59:00,
2013-01-22 01:04:00,9.9,5.8,29.79,SW,236,0.0,0.0,83,0.00,,,0.00,WeatherCatV1.11B39,2013-01-22 06:04:00,
2013-01-22 01:09:00,9.9,5.8,29.79,SW,236,0.0,0.0,83,0.00,,,0.00,WeatherCatV1.11B39,2013-01-22 06:09:00,
2013-01-22 01:14:00,10.0,5.9,29.79,SW,236,0.0,0.0,83,0.00,,,0.00,WeatherCatV1.11B39,2013-01-22 06:14:00,
2013-01-22 01:19:00,10.1,6.0,29.79,SW,236,0.0,0.0,83,0.00,,,0.00,WeatherCatV1.11B39,2013-01-22 06:19:00,
2013-01-22 01:24:00,10.2,6.1,29.80,SW,236,0.0,0.0,83,0.00,,,0.00,WeatherCatV1.11B39,2013-01-22 06:24:00,
2013-01-22 01:29:00,10.3,6.2,29.79,SW,236,0.0,0.0,83,0.00,,,0.00,WeatherCatV1.11B39,2013-01-22 06:29:00,
2013-01-22 01:34:00,10.3,5.9,29.79,SW,236,0.0,0.0,82,0.00,,,0.00,WeatherCatV1.11B39,2013-01-22 06:34:00,
2013-01-22 01:39:00,10.4,6.0,29.79,SW,236,0.0,0.0,82,0.00,,,0.00,WeatherCatV1.11B39,2013-01-22 06:39:00,
2013-01-22 01:40:00,10.3,5.9,29.79,SW,236,0.0,0.0,82,0.00,,,0.00,WeatherCatV1.11B39,2013-01-22 06:40:00,
2013-01-22 01:45:00,10.4,6.0,29.79,SW,225,0.0,0.0,82,0.00,,,0.00,WeatherCatV1.11B39,2013-01-22 06:45:00,
2013-01-22 01:50:00,10.5,6.1,29.79,SW,225,0.0,0.0,82,0.00,,,0.00,WeatherCatV1.11B39,2013-01-22 06:50:00,
2013-01-22 01:55:00,10.5,6.1,29.79,SW,225,0.0,0.0,82,0.00,,,0.00,WeatherCatV1.11B39,2013-01-22 06:55:00,
2013-01-22 02:00:00,10.5,6.1,29.79,SW,225,0.0,0.0,82,0.00,,,0.00,WeatherCatV1.11B39,2013-01-22 07:00:00,
2013-01-22 02:05:00,10.6,6.5,29.79,SW,225,0.0,0.0,83,0.00,,,0.00,WeatherCatV1.11B39,2013-01-22 07:05:00,
2013-01-22 02:10:00,10.6,6.5,29.79,SW,225,0.0,0.0,83,0.00,,,0.00,WeatherCatV1.11B39,2013-01-22 07:10:00,
2013-01-22 02:15:00,10.7,6.8,29.79,SW,225,0.0,0.0,84,0.00,,,0.00,WeatherCatV1.11B39,2013-01-22 07:15:00,
2013-01-22 02:20:00,10.7,6.8,29.79,SW,225,0.0,0.0,84,0.00,,,0.00,WeatherCatV1.11B39,2013-01-22 07:20:00,
2013-01-22 02:25:00,10.7,6.8,29.78,SW,225,0.0,0.0,84,0.00,,,0.00,WeatherCatV1.11B39,2013-01-22 07:25:00,
2013-01-22 02:30:00,10.7,7.1,29.78,SW,225,0.0,0.0,85,0.00,,,0.00,WeatherCatV1.11B39,2013-01-22 07:30:00,
2013-01-22 02:35:00,10.7,7.1,29.78,SW,225,0.0,0.0,85,0.00,,,0.00,WeatherCatV1.11B39,2013-01-22 07:35:00,
2013-01-22 02:40:00,10.8,7.2,29.78,SW,225,0.0,0.0,85,0.00,,,0.00,WeatherCatV1.11B39,2013-01-22 07:40:00,
2013-01-22 02:45:00,10.8,7.2,29.78,SW,225,0.0,0.0,85,0.00,,,0.00,WeatherCatV1.11B39,2013-01-22 07:45:00,
2013-01-22 02:50:00,10.8,7.2,29.78,SW,225,0.0,0.0,85,0.00,,,0.00,WeatherCatV1.11B39,2013-01-22 07:50:00,
2013-01-22 02:55:00,10.8,7.4,29.79,SW,225,0.0,0.0,86,0.00,,,0.00,WeatherCatV1.11B39,2013-01-22 07:55:00,
2013-01-22 03:00:00,10.8,7.4,29.79,SW,225,0.0,0.0,86,0.00,,,0.00,WeatherCatV1.11B39,2013-01-22 08:00:00,
2013-01-22 03:05:00,10.8,7.4,29.78,SW,225,0.0,0.0,86,0.00,,,0.00,WeatherCatV1.11B39,2013-01-22 08:05:00,
2013-01-22 03:10:00,10.8,7.4,29.78,SW,225,0.0,0.0,86,0.00,,,0.00,WeatherCatV1.11B39,2013-01-22 08:10:00,
2013-01-22 03:15:00,10.9,7.6,29.78,SW,225,0.0,0.0,86,0.00,,,0.00,WeatherCatV1.11B39,2013-01-22 08:15:00,
2013-01-22 03:20:00,10.9,7.6,29.78,SW,225,0.0,0.0,86,0.00,,,0.00,WeatherCatV1.11B39,2013-01-22 08:20:00,
2013-01-22 03:25:00,11.0,7.6,29.78,SW,225,0.0,0.0,86,0.00,,,0.00,WeatherCatV1.11B39,2013-01-22 08:25:00,
2013-01-22 03:30:00,11.0,7.6,29.78,SW,225,0.0,0.0,86,0.00,,,0.00,WeatherCatV1.11B39,2013-01-22 08:30:00,
2013-01-22 03:35:00,11.0,7.6,29.78,SW,225,0.0,0.0,86,0.00,,,0.00,WeatherCatV1.11B39,2013-01-22 08:35:00,
2013-01-22 03:40:00,11.0,7.6,29.78,SW,225,0.0,0.0,86,0.00,,,0.00,WeatherCatV1.11B39,2013-01-22 08:40:00,
2013-01-22 03:45:00,11.0,7.6,29.78,SW,225,0.0,0.0,86,0.00,,,0.00,WeatherCatV1.11B39,2013-01-22 08:45:00,
2013-01-22 03:50:00,11.0,7.6,29.78,SW,225,0.0,0.0,86,0.00,,,0.00,WeatherCatV1.11B39,2013-01-22 08:50:00,
2013-01-22 03:55:00,11.0,7.6,29.78,SW,225,0.0,0.0,86,0.00,,,0.00,WeatherCatV1.11B39,2013-01-22 08:55:00,
2013-01-22 04:00:00,11.0,7.6,29.78,SW,225,0.0,0.0,86,0.00,,,0.00,WeatherCatV1.11B39,2013-01-22 09:00:00,
2013-01-22 04:05:00,10.9,7.6,29.78,SW,225,0.0,0.0,86,0.00,,,0.00,WeatherCatV1.11B39,2013-01-22 09:05:00,
2013-01-22 04:10:00,10.9,7.6,29.78,SW,225,0.0,0.0,86,0.00,,,0.00,WeatherCatV1.11B39,2013-01-22 09:10:00,
2013-01-22 04:15:00,10.8,7.4,29.78,SW,225,0.0,0.0,86,0.00,,,0.00,WeatherCatV1.11B39,2013-01-22 09:15:00,
2013-01-22 04:20:00,10.8,7.4,29.78,SW,225,0.0,0.0,86,0.00,,,0.00,WeatherCatV1.11B39,2013-01-22 09:20:00,
2013-01-22 04:25:00,10.8,7.4,29.78,SW,225,0.0,0.0,86,0.00,,,0.00,WeatherCatV1.11B39,2013-01-22 09:25:00,
2013-01-22 04:30:00,10.7,7.4,29.78,SW,225,0.0,0.0,86,0.00,,,0.00,WeatherCatV1.11B39,2013-01-22 09:30:00,
2013-01-22 04:35:00,10.7,7.4,29.78,SW,225,0.0,0.0,86,0.00,,,0.00,WeatherCatV1.11B39,2013-01-22 09:35:00,
2013-01-22 04:40:00,10.6,7.2,29.78,SW,225,0.0,0.0,86,0.00,,,0.00,WeatherCatV1.11B39,2013-01-22 09:40:00,
2013-01-22 04:45:00,10.5,7.2,29.78,SW,225,0.0,0.0,86,0.00,,,0.00,WeatherCatV1.11B39,2013-01-22 09:45:00,
2013-01-22 04:50:00,10.4,6.8,29.78,SW,225,0.0,0.0,85,0.00,,,0.00,WeatherCatV1.11B39,2013-01-22 09:50:00,
2013-01-22 04:55:00,10.3,6.7,29.78,SW,225,0.0,0.0,85,0.00,,,0.00,WeatherCatV1.11B39,2013-01-22 09:55:00,
2013-01-22 05:00:00,10.3,6.7,29.78,SW,225,0.0,0.0,85,0.00,,,0.00,WeatherCatV1.11B39,2013-01-22 10:00:00,
2013-01-22 05:05:00,10.1,6.5,29.78,SW,225,0.0,0.0,85,0.00,,,0.00,WeatherCatV1.11B39,2013-01-22 10:05:00,
2013-01-22 05:10:00,10.0,6.4,29.78,SW,225,0.0,0.0,85,0.00,,,0.00,WeatherCatV1.11B39,2013-01-22 10:10:00,
2013-01-22 05:15:00,9.9,6.3,29.78,SW,225,0.0,0.0,85,0.00,,,0.00,WeatherCatV1.11B39,2013-01-22 10:15:00,
2013-01-22 05:20:00,9.7,6.1,29.78,SW,225,0.0,0.0,85,0.00,,,0.00,WeatherCatV1.11B39,2013-01-22 10:20:00,
2013-01-22 05:25:00,9.5,5.9,29.78,SW,225,0.0,0.0,85,0.00,,,0.00,WeatherCatV1.11B39,2013-01-22 10:25:00,
2013-01-22 05:30:00,9.4,5.8,29.79,SW,225,0.0,0.0,85,0.00,,,0.00,WeatherCatV1.11B39,2013-01-22 10:30:00,
2013-01-22 05:35:00,9.2,5.6,29.79,SW,225,0.0,0.0,85,0.00,,,0.00,WeatherCatV1.11B39,2013-01-22 10:35:00,
2013-01-22 05:40:00,9.1,5.5,29.79,SW,225,0.0,0.0,85,0.00,,,0.00,WeatherCatV1.11B39,2013-01-22 10:40:00,
2013-01-22 05:45:00,8.9,5.3,29.79,SW,225,0.0,0.0,85,0.00,,,0.00,WeatherCatV1.11B39,2013-01-22 10:45:00,
2013-01-22 05:50:00,8.8,5.2,29.79,SW,225,0.0,0.0,85,0.00,,,0.00,WeatherCatV1.11B39,2013-01-22 10:50:00,
2013-01-22 05:55:00,8.7,5.1,29.79,SW,225,0.0,0.0,85,0.00,,,0.00,WeatherCatV1.11B39,2013-01-22 10:55:00,
2013-01-22 06:00:00,8.7,5.1,29.79,SW,225,0.0,0.0,85,0.00,,,0.00,WeatherCatV1.11B39,2013-01-22 11:00:00,
2013-01-22 06:05:00,8.6,5.0,29.79,SW,225,0.0,0.0,85,0.00,,,0.00,WeatherCatV1.11B39,2013-01-22 11:05:00,
2013-01-22 06:10:00,8.5,4.9,29.79,SW,225,0.0,0.0,85,0.00,,,0.00,WeatherCatV1.11B39,2013-01-22 11:10:00,
2013-01-22 06:15:00,8.4,4.8,29.78,SW,225,0.0,0.0,85,0.00,,,0.00,WeatherCatV1.11B39,2013-01-22 11:15:00,
2013-01-22 06:20:00,8.3,4.7,29.79,SW,225,0.0,0.0,85,0.00,,,0.00,WeatherCatV1.11B39,2013-01-22 11:20:00,
2013-01-22 06:25:00,8.3,5.0,29.79,SW,225,0.0,0.0,86,0.00,,,0.00,WeatherCatV1.11B39,2013-01-22 11:25:00,
2013-01-22 06:30:00,8.1,4.6,29.79,SW,225,0.0,0.0,85,0.00,,,0.00,WeatherCatV1.11B39,2013-01-22 11:30:00,
2013-01-22 06:35:00,8.0,4.4,29.79,SW,225,0.0,0.0,85,0.00,,,0.00,WeatherCatV1.11B39,2013-01-22 11:35:00,
2013-01-22 06:40:00,7.9,4.4,29.79,SW,225,0.0,0.0,85,0.00,,,0.00,WeatherCatV1.11B39,2013-01-22 11:40:00,
2013-01-22 06:45:00,7.8,4.2,29.79,SW,225,0.0,0.0,85,0.00,,,0.00,WeatherCatV1.11B39,2013-01-22 11:45:00,
2013-01-22 06:50:00,7.8,4.5,29.79,SW,225,0.0,0.0,86,0.00,,,0.00,WeatherCatV1.11B39,2013-01-22 11:50:00,
2013-01-22 06:55:00,7.7,4.4,29.78,SW,225,0.0,0.0,86,0.00,,,0.00,WeatherCatV1.11B39,2013-01-22 11:55:00,
2013-01-22 07:00:00,7.7,4.4,29.79,SW,225,0.0,0.0,86,0.00,,,0.00,WeatherCatV1.11B39,2013-01-22 12:00:00,
2013-01-22 07:05:00,7.6,4.3,29.78,SW,225,0.0,0.0,86,0.00,,,0.00,WeatherCatV1.11B39,2013-01-22 12:05:00,
2013-01-22 07:10:00,7.3,4.0,29.79,SW,225,0.0,0.0,86,0.00,,,0.00,WeatherCatV1.11B39,2013-01-22 12:10:00,
2013-01-22 07:15:00,7.1,3.6,29.78,SW,225,0.0,0.0,85,0.00,,,0.00,WeatherCatV1.11B39,2013-01-22 12:15:00,
2013-01-22 07:20:00,6.9,3.4,29.78,SW,225,0.0,0.0,85,0.00,,,0.00,WeatherCatV1.11B39,2013-01-22 12:20:00,
2013-01-22 07:25:00,6.6,3.1,29.78,SW,225,0.0,0.0,85,0.00,,,0.00,WeatherCatV1.11B39,2013-01-22 12:25:00,
2013-01-22 07:30:00,6.4,2.6,29.79,SW,225,0.0,0.0,84,0.00,,,0.00,WeatherCatV1.11B39,2013-01-22 12:30:00,
2013-01-22 07:35:00,6.2,2.4,29.79,SW,225,0.0,0.0,84,0.00,,,0.00,WeatherCatV1.11B39,2013-01-22 12:35:00,
2013-01-22 07:40:00,6.0,2.2,29.79,SW,225,0.0,0.0,84,0.00,,,0.00,WeatherCatV1.11B39,2013-01-22 12:40:00,
2013-01-22 07:45:00,5.8,2.0,29.79,NW,315,0.0,0.0,84,0.00,,,0.00,WeatherCatV1.11B39,2013-01-22 12:45:00,
2013-01-22 07:50:00,5.6,1.6,29.79,NW,315,0.0,0.0,83,0.00,,,0.00,WeatherCatV1.11B39,2013-01-22 12:50:00,
2013-01-22 07:55:00,5.3,1.3,29.79,NW,315,0.0,0.0,83,0.00,,,0.00,WeatherCatV1.11B39,2013-01-22 12:55:00,
2013-01-22 08:00:00,5.1,1.1,29.78,NW,315,0.0,0.0,83,0.00,,,0.00,WeatherCatV1.11B39,2013-01-22 13:00:00,
2013-01-22 08:05:00,5.1,1.1,29.79,NW,315,0.0,0.0,83,0.00,,,0.00,WeatherCatV1.11B39,2013-01-22 13:05:00,
2013-01-22 08:10:00,5.3,1.3,29.79,NW,315,0.0,0.0,83,0.00,,,0.00,WeatherCatV1.11B39,2013-01-22 13:10:00,
2013-01-22 08:15:00,5.5,1.5,29.79,North,0,0.0,0.0,83,0.00,,,0.00,WeatherCatV1.11B39,2013-01-22 13:15:00,
2013-01-22 08:20:00,5.6,1.6,29.79,North,0,0.0,0.0,83,0.00,,,0.00,WeatherCatV1.11B39,2013-01-22 13:20:00,
2013-01-22 08:25:00,5.7,1.7,29.79,NNE,22,0.0,0.0,83,0.00,,,0.00,WeatherCatV1.11B39,2013-01-22 13:25:00,
2013-01-22 08:30:00,6.0,2.0,29.78,NE,45,0.0,0.0,83,0.00,,,0.00,WeatherCatV1.11B39,2013-01-22 13:30:00,
2013-01-22 08:35:00,6.5,2.7,29.78,NE,45,0.0,0.0,84,0.00,,,0.00,WeatherCatV1.11B39,2013-01-22 13:35:00,
2013-01-22 08:40:00,7.1,3.3,29.78,NE,45,0.0,0.0,84,0.00,,,0.00,WeatherCatV1.11B39,2013-01-22 13:40:00,
2013-01-22 08:45:00,8.1,4.3,29.79,NE,45,1.0,2.0,84,0.00,,,0.00,WeatherCatV1.11B39,2013-01-22 13:45:00,
2013-01-22 08:50:00,8.8,4.7,29.78,ENE,68,0.0,0.0,83,0.00,,,0.00,WeatherCatV1.11B39,2013-01-22 13:50:00,
2013-01-22 08:55:00,9.8,5.4,29.78,ENE,68,0.0,0.0,82,0.00,,,0.00,WeatherCatV1.11B39,2013-01-22 13:55:00,
2013-01-22 09:00:00,10.3,5.6,29.78,ENE,68,0.0,0.0,81,0.00,,,0.00,WeatherCatV1.11B39,2013-01-22 14:00:00,
2013-01-22 09:05:00,10.9,6.0,29.78,ENE,68,1.0,2.0,80,0.00,,,0.00,WeatherCatV1.11B39,2013-01-22 14:05:00,
2013-01-22 09:10:00,11.4,6.5,29.78,SSE,158,1.0,2.0,80,0.00,,,0.00,WeatherCatV1.11B39,2013-01-22 14:10:00,
2013-01-22 09:15:00,11.7,6.5,29.78,SE,135,0.0,0.0,79,0.00,,,0.00,WeatherCatV1.11B39,2013-01-22 14:15:00,
2013-01-22 09:28:00,12.1,6.9,29.77,SE,135,1.0,2.0,79,0.00,,,0.00,WeatherCatV1.11B39,2013-01-22 14:28:00,
2013-01-22 09:33:00,14.2,8.3,29.77,NW,326,0.0,5.0,77,0.00,,,0.00,WeatherCatV1.11B39,2013-01-22 14:33:00,
2013-01-22 09:38:00,14.8,7.1,29.76,WSW,250,1.0,11.0,71,0.00,,,0.00,WeatherCatV1.11B39,2013-01-22 14:38:00,
2013-01-22 09:43:00,15.9,7.6,29.76,SE,144,5.0,5.0,69,0.00,,,0.00,WeatherCatV1.11B39,2013-01-22 14:43:00,
2013-01-22 09:48:00,16.7,5.3,29.76,South,172,5.0,6.0,60,0.00,,,0.00,WeatherCatV1.11B39,2013-01-22 14:48:00,
2013-01-22 09:53:00,17.4,2.4,29.75,SSE,162,3.0,9.0,51,0.00,,,0.00,WeatherCatV1.11B39,2013-01-22 14:53:00,
2013-01-22 09:58:00,17.9,2.4,29.75,SW,225,2.0,6.0,50,0.00,,,0.00,WeatherCatV1.11B39,2013-01-22 14:58:00,
2013-01-22 10:03:00,17.8,3.2,29.76,South,185,3.0,16.0,52,0.00,,,0.00,WeatherCatV1.11B39,2013-01-22 15:03:00,
2013-01-22 10:08:00,18.2,1.4,29.76,North,0,3.0,12.0,47,0.00,,,0.00,WeatherCatV1.11B39,2013-01-22 15:08:00,
2013-01-22 10:13:00,18.1,0.4,29.76,West,263,4.0,10.0,45,0.00,,,0.00,WeatherCatV1.11B39,2013-01-22 15:13:00,
2013-01-22 10:18:00,18.1,0.4,29.76,West,260,4.0,6.0,45,0.00,,,0.00,WeatherCatV1.11B39,2013-01-22 15:18:00,
2013-01-22 10:34:00,16.7,3.4,29.77,SSW,199,16.0,16.0,55,0.00,,,0.00,WeatherCatV1.11B39,2013-01-22 15:34:00,
2013-01-22 10:39:00,16.1,3.6,29.77,SE,140,10.0,10.0,57,0.00,,,0.00,WeatherCatV1.11B39,2013-01-22 15:39:00,
2013-01-22 10:44:00,16.2,2.9,29.77,SSW,209,2.0,13.0,55,0.00,,,0.00,WeatherCatV1.11B39,2013-01-22 15:44:00,
2013-01-22 10:49:00,16.4,3.1,29.77,SSW,202,6.0,9.0,55,0.00,,,0.00,WeatherCatV1.11B39,2013-01-22 15:49:00,
2013-01-22 11:15:00,15.1,2.6,29.78,SSE,160,9.0,11.0,57,0.00,,,0.00,WeatherCatV1.11B39,2013-01-22 16:15:00,
2013-01-22 11:20:00,14.8,2.0,29.78,SSW,199,10.0,15.0,56,0.00,,,0.00,WeatherCatV1.11B39,2013-01-22 16:20:00,
2013-01-22 11:25:00,15.2,1.6,29.77,SW,219,7.0,16.0,54,0.00,,,0.00,WeatherCatV1.11B39,2013-01-22 16:25:00,
2013-01-22 11:30:00,15.3,0.9,29.77,West,274,15.0,16.0,52,0.00,,,0.00,WeatherCatV1.11B39,2013-01-22 16:30:00,
2013-01-22 11:35:00,15.6,1.6,29.76,SSW,209,6.0,11.0,53,0.00,,,0.00,WeatherCatV1.11B39,2013-01-22 16:35:00,
2013-01-22 11:40:00,15.8,1.7,29.77,WSW,246,6.0,12.0,53,0.00,,,0.00,WeatherCatV1.11B39,2013-01-22 16:40:00,
2013-01-22 11:45:00,15.7,2.0,29.76,SW,236,4.0,15.0,54,0.00,,,0.00,WeatherCatV1.11B39,2013-01-22 16:45:00,
2013-01-22 11:50:00,15.7,1.6,29.76,South,184,6.0,12.0,53,0.00,,,0.00,WeatherCatV1.11B39,2013-01-22 16:50:00,
2013-01-22 11:55:00,15.8,1.7,29.76,West,281,9.0,11.0,53,0.00,,,0.00,WeatherCatV1.11B39,2013-01-22 16:55:00,
2013-01-22 12:00:00,16.1,1.6,29.75,WSW,238,8.0,13.0,52,0.00,,,0.00,WeatherCatV1.11B39,2013-01-22 17:00:00,
2013-01-22 12:05:00,16.4,1.9,29.75,NNE,19,3.0,10.0,52,0.00,,,0.00,WeatherCatV1.11B39,2013-01-22 17:05:00,
2013-01-22 12:10:00,16.1,0.8,29.76,NNW,334,2.0,13.0,50,0.00,,,0.00,WeatherCatV1.11B39,2013-01-22 17:10:00,
2013-01-22 12:15:00,15.0,-0.2,29.76,SSE,163,4.0,9.0,50,0.00,,,0.00,WeatherCatV1.11B39,2013-01-22 17:15:00,
2013-01-22 12:20:00,14.6,0.2,29.76,NW,322,3.0,14.0,52,0.00,,,0.00,WeatherCatV1.11B39,2013-01-22 17:20:00,
2013-01-22 12:25:00,15.0,1.0,29.77,SW,219,2.0,7.0,53,0.00,,,0.00,WeatherCatV1.11B39,2013-01-22 17:25:00,
2013-01-22 12:30:00,15.7,1.6,29.77,WSW,252,3.0,16.0,53,0.00,,,0.00,WeatherCatV1.11B39,2013-01-22 17:30:00,
2013-01-22 12:35:00,16.6,2.1,29.77,West,281,2.0,12.0,52,0.00,,,0.00,WeatherCatV1.11B39,2013-01-22 17:35:00,
2013-01-22 12:40:00,17.0,2.9,29.77,SW,221,6.0,9.0,53,0.00,,,0.00,WeatherCatV1.11B39,2013-01-22 17:40:00,
2013-01-22 12:45:00,16.5,1.1,29.78,WSW,237,12.0,15.0,50,0.00,,,0.00,WeatherCatV1.11B39,2013-01-22 17:45:00,
2013-01-22 12:50:00,15.7,0.4,29.78,SW,221,2.0,8.0,50,0.00,,,0.00,WeatherCatV1.11B39,2013-01-22 17:50:00,
2013-01-22 12:55:00,15.7,0.0,29.78,SW,222,6.0,10.0,49,0.00,,,0.00,WeatherCatV1.11B39,2013-01-22 17:55:00,
2013-01-22 13:00:00,15.7,0.0,29.78,South,184,5.0,8.0,49,0.00,,,0.00,WeatherCatV1.11B39,2013-01-22 18:00:00,
2013-01-22 13:05:00,16.4,0.6,29.78,North,0,1.0,13.0,49,0.00,,,0.00,WeatherCatV1.11B39,2013-01-22 18:05:00,
2013-01-22 13:10:00,17.0,1.2,29.77,SW,235,5.0,9.0,49,0.00,,,0.00,WeatherCatV1.11B39,2013-01-22 18:10:00,
2013-01-22 13:15:00,16.8,1.0,29.77,SW,236,5.0,11.0,49,0.00,,,0.00,WeatherCatV1.11B39,2013-01-22 18:15:00,
2013-01-22 13:20:00,17.1,1.7,29.78,WSW,244,2.0,7.0,50,0.00,,,0.00,WeatherCatV1.11B39,2013-01-22 18:20:00,
2013-01-22 13:25:00,16.8,1.8,29.77,West,265,2.0,11.0,51,0.00,,,0.00,WeatherCatV1.11B39,2013-01-22 18:25:00,
2013-01-22 13:30:00,16.9,1.9,29.78,West,277,1.0,5.0,51,0.00,,,0.00,WeatherCatV1.11B39,2013-01-22 18:30:00,
2013-01-22 13:35:00,16.5,1.6,29.79,WSW,246,2.0,12.0,51,0.00,,,0.00,WeatherCatV1.11B39,2013-01-22 18:35:00,
2013-01-22 13:40:00,15.5,0.6,29.80,WSW,244,4.0,9.0,51,0.00,,,0.00,WeatherCatV1.11B39,2013-01-22 18:40:00,
2013-01-22 13:45:00,15.0,1.0,29.80,South,186,5.0,13.0,53,0.00,,,0.00,WeatherCatV1.11B39,2013-01-22 18:45:00,
2013-01-22 13:50:00,14.8,0.8,29.81,West,267,4.0,5.0,53,0.00,,,0.00,WeatherCatV1.11B39,2013-01-22 18:50:00,
2013-01-22 13:55:00,14.3,-0.1,29.81,WSW,237,3.0,9.0,52,0.00,,,0.00,WeatherCatV1.11B39,2013-01-22 18:55:00,
2013-01-22 14:00:00,14.0,-0.3,29.81,WSW,246,0.0,10.0,52,0.00,,,0.00,WeatherCatV1.11B39,2013-01-22 19:00:00,
2013-01-22 14:05:00,14.0,-0.8,29.82,SSW,202,2.0,9.0,51,0.00,,,0.00,WeatherCatV1.11B39,2013-01-22 19:05:00,
2013-01-22 14:10:00,13.7,-1.0,29.82,SW,219,4.0,7.0,51,0.00,,,0.00,WeatherCatV1.11B39,2013-01-22 19:10:00,
2013-01-22 14:15:00,13.6,-1.5,29.82,South,191,6.0,15.0,50,0.00,,,0.00,WeatherCatV1.11B39,2013-01-22 19:15:00,
2013-01-22 14:20:00,14.1,-0.7,29.82,West,261,1.0,5.0,51,0.00,,,0.00,WeatherCatV1.11B39,2013-01-22 19:20:00,
2013-01-22 14:25:00,14.9,-0.3,29.83,SE,128,2.0,4.0,50,0.00,,,0.00,WeatherCatV1.11B39,2013-01-22 19:25:00,
2013-01-22 14:30:00,14.8,-1.7,29.83,SE,130,3.0,9.0,47,0.00,,,0.00,WeatherCatV1.11B39,2013-01-22 19:30:00,
2013-01-22 14:35:00,14.4,-0.8,29.83,SSW,212,3.0,7.0,50,0.00,,,0.00,WeatherCatV1.11B39,2013-01-22 19:35:00,
2013-01-22 14:40:00,14.3,-1.3,29.84,WNW,286,0.0,9.0,49,0.00,,,0.00,WeatherCatV1.11B39,2013-01-22 19:40:00,
2013-01-22 14:45:00,14.5,-0.7,29.83,WSW,252,3.0,3.0,50,0.00,,,0.00,WeatherCatV1.11B39,2013-01-22 19:45:00,
2013-01-22 14:50:00,14.5,-1.6,29.83,WSW,257,0.0,6.0,48,0.00,,,0.00,WeatherCatV1.11B39,2013-01-22 19:50:00,
2013-01-22 14:55:00,14.3,-0.9,29.84,WSW,251,1.0,4.0,50,0.00,,,0.00,WeatherCatV1.11B39,2013-01-22 19:55:00,
2013-01-22 15:00:00,13.8,-2.7,29.84,South,185,4.0,10.0,47,0.00,,,0.00,WeatherCatV1.11B39,2013-01-22 20:00:00,
2013-01-22 15:05:00,13.4,-2.6,29.84,ENE,75,1.0,3.0,48,0.00,,,0.00,WeatherCatV1.11B39,2013-01-22 20:05:00,
2013-01-22 15:10:00,13.2,-1.9,29.85,West,263,2.0,2.0,50,0.00,,,0.00,WeatherCatV1.11B39,2013-01-22 20:10:00,
2013-01-22 15:15:00,13.3,-2.2,29.85,West,263,0.0,1.0,49,0.00,,,0.00,WeatherCatV1.11B39,2013-01-22 20:15:00,
2013-01-22 15:20:00,13.2,-1.9,29.85,SSE,149,4.0,13.0,50,0.00,,,0.00,WeatherCatV1.11B39,2013-01-22 20:20:00,
2013-01-22 15:25:00,12.7,-0.4,29.86,SE,145,1.0,2.0,55,0.00,,,0.00,WeatherCatV1.11B39,2013-01-22 20:25:00,
2013-01-22 15:30:00,12.3,0.4,29.86,SW,227,1.0,3.0,58,0.00,,,0.00,WeatherCatV1.11B39,2013-01-22 20:30:00,
2013-01-22 15:35:00,12.1,0.6,29.87,WSW,252,3.0,6.0,59,0.00,,,0.00,WeatherCatV1.11B39,2013-01-22 20:35:00,
2013-01-22 15:40:00,11.7,0.9,29.86,SSE,163,0.0,3.0,61,0.00,,,0.00,WeatherCatV1.11B39,2013-01-22 20:40:00,
2013-01-22 15:45:00,11.4,1.3,29.87,NW,306,0.0,4.0,63,0.00,,,0.00,WeatherCatV1.11B39,2013-01-22 20:45:00,
2013-01-22 15:50:00,11.2,0.8,29.87,SW,232,0.0,4.0,62,0.00,,,0.00,WeatherCatV1.11B39,2013-01-22 20:50:00,
2013-01-22 15:55:00,11.0,0.6,29.87,WNW,300,0.0,0.0,62,0.00,,,0.00,WeatherCatV1.11B39,2013-01-22 20:55:00,
2013-01-22 16:00:00,11.0,0.6,29.88,WNW,295,0.0,1.0,62,0.00,,,0.00,WeatherCatV1.11B39,2013-01-22 21:00:00,
2013-01-22 16:05:00,10.9,0.1,29.88,WNW,295,0.0,0.0,61,0.00,,,0.00,WeatherCatV1.11B39,2013-01-22 21:05:00,
2013-01-22 16:10:00,10.9,-0.6,29.88,WNW,295,0.0,1.0,59,0.00,,,0.00,WeatherCatV1.11B39,2013-01-22 21:10:00,
2013-01-22 16:15:00,10.8,-0.7,29.88,WNW,295,0.0,0.0,59,0.00,,,0.00,WeatherCatV1.11B39,2013-01-22 21:15:00,
2013-01-22 16:20:00,10.8,-0.7,29.89,WNW,295,0.0,0.0,59,0.00,,,0.00,WeatherCatV1.11B39,2013-01-22 21:20:00,
2013-01-22 16:25:00,10.8,-0.7,29.89,WNW,295,0.0,0.0,59,0.00,,,0.00,WeatherCatV1.11B39,2013-01-22 21:25:00,
2013-01-22 16:30:00,10.7,-1.5,29.89,SSW,194,0.0,0.0,57,0.00,,,0.00,WeatherCatV1.11B39,2013-01-22 21:30:00,
2013-01-22 16:35:00,10.6,-1.6,29.89,SW,222,0.0,1.0,57,0.00,,,0.00,WeatherCatV1.11B39,2013-01-22 21:35:00,
2013-01-22 16:40:00,10.5,-1.7,29.90,SW,222,0.0,0.0,57,0.00,,,0.00,WeatherCatV1.11B39,2013-01-22 21:40:00,
2013-01-22 16:45:00,10.4,-1.1,29.90,SW,236,0.0,4.0,59,0.00,,,0.00,WeatherCatV1.11B39,2013-01-22 21:45:00,
2013-01-22 16:50:00,10.4,-0.3,29.90,SSW,207,2.0,3.0,61,0.00,,,0.00,WeatherCatV1.11B39,2013-01-22 21:50:00,
2013-01-22 16:55:00,10.3,0.2,29.91,SSW,207,0.0,3.0,63,0.00,,,0.00,WeatherCatV1.11B39,2013-01-22 21:55:00,
2013-01-22 17:01:00,10.0,0.9,29.92,SSE,157,3.0,3.0,66,0.00,,,0.00,WeatherCatV1.11B39,2013-01-22 22:01:00,
2013-01-22 17:02:00,9.9,1.2,29.92,SSE,157,2.0,3.0,67,0.00,,,0.00,WeatherCatV1.11B39,2013-01-22 22:02:00,
2013-01-22 17:07:00,9.5,1.1,29.92,SSE,163,3.0,4.0,68,0.00,,,0.00,WeatherCatV1.11B39,2013-01-22 22:07:00,
2013-01-22 17:12:00,9.1,1.0,29.93,SSE,165,3.0,3.0,69,0.00,,,0.00,WeatherCatV1.11B39,2013-01-22 22:12:00,
2013-01-22 17:17:00,8.8,1.0,29.93,SSW,196,2.0,2.0,70,0.00,,,0.00,WeatherCatV1.11B39,2013-01-22 22:17:00,
2013-01-22 17:22:00,8.6,0.9,29.93,SSW,193,0.0,1.0,70,0.00,,,0.00,WeatherCatV1.11B39,2013-01-22 22:22:00,
2013-01-22 17:27:00,8.5,1.1,29.94,SSW,197,2.0,2.0,71,0.00,,,0.00,WeatherCatV1.11B39,2013-01-22 22:27:00,
2013-01-22 17:32:00,8.4,1.0,29.94,SSW,210,2.0,5.0,71,0.00,,,0.00,WeatherCatV1.11B39,2013-01-22 22:32:00,
2013-01-22 17:37:00,8.2,-0.1,29.94,SSW,193,0.0,2.0,68,0.00,,,0.00,WeatherCatV1.11B39,2013-01-22 22:37:00,
2013-01-22 17:42:00,8.2,-1.4,29.94,NNE,29,0.0,5.0,64,0.00,,,0.00,WeatherCatV1.11B39,2013-01-22 22:42:00,
2013-01-22 17:47:00,8.2,-2.4,29.94,NNW,342,0.0,0.0,61,0.00,,,0.00,WeatherCatV1.11B39,2013-01-22 22:47:00,
2013-01-22 17:52:00,8.1,-2.9,29.94,West,277,0.0,2.0,60,0.00,,,0.00,WeatherCatV1.11B39,2013-01-22 22:52:00,
2013-01-22 17:57:00,7.8,-3.9,29.95,East,82,0.0,2.0,58,0.00,,,0.00,WeatherCatV1.11B39,2013-01-22 22:57:00,
2013-01-22 18:02:00,7.7,-4.7,29.95,SE,126,1.0,3.0,56,0.00,,,0.00,WeatherCatV1.11B39,2013-01-22 23:02:00,
2013-01-22 18:07:00,7.4,-5.3,29.94,SE,142,3.0,5.0,55,0.00,,,0.00,WeatherCatV1.11B39,2013-01-22 23:07:00,
2013-01-22 18:12:00,7.3,-5.4,29.94,South,171,0.0,7.0,55,0.00,,,0.00,WeatherCatV1.11B39,2013-01-22 23:12:00,
2013-01-22 18:17:00,7.2,-5.9,29.95,SSW,201,0.0,2.0,54,0.00,,,0.00,WeatherCatV1.11B39,2013-01-22 23:17:00,
2013-01-22 18:22:00,7.0,-6.1,29.95,SSE,147,1.0,2.0,54,0.00,,,0.00,WeatherCatV1.11B39,2013-01-22 23:22:00,
2013-01-22 18:27:00,6.9,-6.2,29.95,South,190,0.0,3.0,54,0.00,,,0.00,WeatherCatV1.11B39,2013-01-22 23:27:00,
2013-01-22 18:32:00,6.8,-6.7,29.95,SSW,194,0.0,7.0,53,0.00,,,0.00,WeatherCatV1.11B39,2013-01-22 23:32:00,
2013-01-22 18:37:00,6.7,-3.9,29.96,SE,140,2.0,6.0,61,0.00,,,0.00,WeatherCatV1.11B39,2013-01-22 23:37:00,
2013-01-22 18:42:00,6.7,-5.6,29.96,NE,36,7.0,12.0,56,0.00,,,0.00,WeatherCatV1.11B39,2013-01-22 23:42:00,
2013-01-22 18:47:00,6.7,-6.0,29.96,WSW,242,0.0,2.0,55,0.00,,,0.00,WeatherCatV1.11B39,2013-01-22 23:47:00,
2013-01-22 18:52:00,6.5,-5.4,29.97,East,83,4.0,4.0,57,0.00,,,0.00,WeatherCatV1.11B39,2013-01-22 23:52:00,
2013-01-22 18:57:00,6.1,-5.8,29.97,SE,130,1.0,3.0,57,0.00,,,0.00,WeatherCatV1.11B39,2013-01-22 23:57:00,
2013-01-22 19:02:00,6.1,-6.6,29.97,NNE,18,0.0,2.0,55,0.00,,,0.00,WeatherCatV1.11B39,2013-01-23 00:02:00,
2013-01-22 19:07:00,6.0,-6.3,29.97,West,261,3.0,6.0,56,0.00,,,0.00,WeatherCatV1.11B39,2013-01-23 00:07:00,
2013-01-22 19:12:00,6.0,-6.3,29.98,NNW,329,0.0,3.0,56,0.00,,,0.00,WeatherCatV1.11B39,2013-01-23 00:12:00,
2013-01-22 19:17:00,5.8,-6.5,29.98,SE,132,3.0,4.0,56,0.00,,,0.00,WeatherCatV1.11B39,2013-01-23 00:17:00,
2013-01-22 19:22:00,5.5,-6.8,29.98,South,171,0.0,2.0,56,0.00,,,0.00,WeatherCatV1.11B39,2013-01-23 00:22:00,
2013-01-22 19:27:00,5.3,-6.6,29.98,South,191,0.0,4.0,57,0.00,,,0.00,WeatherCatV1.11B39,2013-01-23 00:27:00,
2013-01-22 19:32:00,5.2,-6.7,29.98,SSE,157,3.0,7.0,57,0.00,,,0.00,WeatherCatV1.11B39,2013-01-23 00:32:00,
2013-01-22 19:37:00,5.3,-7.3,29.98,North,349,3.0,5.0,55,0.00,,,0.00,WeatherCatV1.11B39,2013-01-23 00:37:00,
2013-01-22 19:42:00,5.3,-7.7,29.98,SSE,156,0.0,2.0,54,0.00,,,0.00,WeatherCatV1.11B39,2013-01-23 00:42:00,
2013-01-22 19:47:00,5.1,-7.1,29.98,SSE,156,0.0,0.0,56,0.00,,,0.00,WeatherCatV1.11B39,2013-01-23 00:47:00,
2013-01-22 19:52:00,4.9,-7.3,29.98,SSE,156,2.0,2.0,56,0.00,,,0.00,WeatherCatV1.11B39,2013-01-23 00:52:00,
2013-01-22 19:57:00,4.9,-7.3,29.98,SE,140,0.0,1.0,56,0.00,,,0.00,WeatherCatV1.11B39,2013-01-23 00:57:00,
2013-01-22 20:02:00,4.7,-7.1,29.97,SSE,153,0.0,0.0,57,0.00,,,0.00,WeatherCatV1.11B39,2013-01-23 01:02:00,
2013-01-22 20:07:00,4.6,-7.2,29.97,SW,234,7.0,7.0,57,0.00,,,0.00,WeatherCatV1.11B39,2013-01-23 01:07:00,
2013-01-22 20:12:00,4.5,-7.3,29.97,South,175,0.0,1.0,57,0.00,,,0.00,WeatherCatV1.11B39,2013-01-23 01:12:00,
2013-01-22 20:17:00,4.5,-7.7,29.97,West,275,0.0,2.0,56,0.00,,,0.00,WeatherCatV1.11B39,2013-01-23 01:17:00,
2013-01-22 20:22:00,4.4,-7.4,29.97,SSW,205,0.0,2.0,57,0.00,,,0.00,WeatherCatV1.11B39,2013-01-23 01:22:00,
2013-01-22 20:27:00,4.2,-7.3,29.97,ESE,118,2.0,6.0,58,0.00,,,0.00,WeatherCatV1.11B39,2013-01-23 01:27:00,
2013-01-22 20:32:00,4.1,-7.4,29.98,NNW,339,2.0,2.0,58,0.00,,,0.00,WeatherCatV1.11B39,2013-01-23 01:32:00,
2013-01-22 20:37:00,4.0,-7.4,29.98,South,176,1.0,2.0,58,0.00,,,0.00,WeatherCatV1.11B39,2013-01-23 01:37:00,
2013-01-22 20:42:00,4.0,-8.5,29.98,SSE,163,0.0,1.0,55,0.00,,,0.00,WeatherCatV1.11B39,2013-01-23 01:42:00,
2013-01-22 20:47:00,4.1,-8.4,29.98,East,88,0.0,3.0,55,0.00,,,0.00,WeatherCatV1.11B39,2013-01-23 01:47:00,
2013-01-22 20:52:00,4.0,-8.5,29.98,North,355,1.0,14.0,55,0.00,,,0.00,WeatherCatV1.11B39,2013-01-23 01:52:00,
2013-01-22 20:57:00,3.9,-8.6,29.98,WSW,237,3.0,4.0,55,0.00,,,0.00,WeatherCatV1.11B39,2013-01-23 01:57:00,
2013-01-22 21:02:00,3.7,-7.4,29.96,SW,234,0.0,12.0,59,0.00,,,0.00,WeatherCatV1.11B39,2013-01-23 02:02:00,
2013-01-22 21:07:00,3.5,-8.3,29.97,East,86,2.0,8.0,57,0.00,,,0.00,WeatherCatV1.11B39,2013-01-23 02:07:00,
2013-01-22 21:12:00,3.4,-8.7,29.97,East,94,0.0,2.0,56,0.00,,,0.00,WeatherCatV1.11B39,2013-01-23 02:12:00,
2013-01-22 21:17:00,3.2,-8.9,29.97,WNW,298,0.0,7.0,56,0.00,,,0.00,WeatherCatV1.11B39,2013-01-23 02:17:00,
2013-01-22 21:22:00,3.0,-9.1,29.97,East,88,3.0,10.0,56,0.00,,,0.00,WeatherCatV1.11B39,2013-01-23 02:22:00,
2013-01-22 21:27:00,2.8,-9.3,29.97,East,92,1.0,4.0,56,0.00,,,0.00,WeatherCatV1.11B39,2013-01-23 02:27:00,
2013-01-22 21:32:00,2.8,-9.3,29.97,South,188,4.0,5.0,56,0.00,,,0.00,WeatherCatV1.11B39,2013-01-23 02:32:00,
2013-01-22 21:37:00,2.8,-9.7,29.98,SSE,161,2.0,2.0,55,0.00,,,0.00,WeatherCatV1.11B39,2013-01-23 02:37:00,
2013-01-22 21:42:00,2.6,-9.8,29.98,SW,218,1.0,4.0,55,0.00,,,0.00,WeatherCatV1.11B39,2013-01-23 02:42:00,
2013-01-22 21:47:00,2.5,-10.3,29.98,SE,140,2.0,13.0,54,0.00,,,0.00,WeatherCatV1.11B39,2013-01-23 02:47:00,
2013-01-22 21:52:00,2.4,-11.2,29.98,South,182,1.0,2.0,52,0.00,,,0.00,WeatherCatV1.11B39,2013-01-23 02:52:00,
2013-01-22 21:57:00,2.2,-11.3,29.98,SE,132,3.0,7.0,52,0.00,,,0.00,WeatherCatV1.11B39,2013-01-23 02:57:00,
2013-01-22 22:02:00,2.0,-11.5,29.98,SE,128,0.0,4.0,52,0.00,,,0.00,WeatherCatV1.11B39,2013-01-23 03:02:00,
2013-01-22 22:07:00,1.7,-11.8,29.99,North,9,0.0,0.0,52,0.00,,,0.00,WeatherCatV1.11B39,2013-01-23 03:07:00,
2013-01-22 22:12:00,1.4,-12.9,29.99,East,93,1.0,3.0,50,0.00,,,0.00,WeatherCatV1.11B39,2013-01-23 03:12:00,
2013-01-22 22:17:00,0.9,-12.6,29.99,SSE,161,3.0,3.0,52,0.00,,,0.00,WeatherCatV1.11B39,2013-01-23 03:17:00,
2013-01-22 22:22:00,0.8,-13.8,29.99,ESE,113,3.0,4.0,49,0.00,,,0.00,WeatherCatV1.11B39,2013-01-23 03:22:00,
2013-01-22 22:27:00,0.8,-14.6,29.99,ENE,59,2.0,6.0,47,0.00,,,0.00,WeatherCatV1.11B39,2013-01-23 03:27:00,
2013-01-22 22:32:00,0.6,-14.4,30.00,SW,232,4.0,7.0,48,0.00,,,0.00,WeatherCatV1.11B39,2013-01-23 03:32:00,
2013-01-22 22:37:00,0.5,-14.1,30.00,SW,227,0.0,3.0,49,0.00,,,0.00,WeatherCatV1.11B39,2013-01-23 03:37:00,
2013-01-22 22:42:00,0.5,-14.5,29.99,SE,128,0.0,6.0,48,0.00,,,0.00,WeatherCatV1.11B39,2013-01-23 03:42:00,
2013-01-22 22:47:00,0.6,-14.4,30.00,SSW,200,2.0,11.0,48,0.00,,,0.00,WeatherCatV1.11B39,2013-01-23 03:47:00,
2013-01-22 22:52:00,0.5,-14.9,30.00,West,269,8.0,9.0,47,0.00,,,0.00,WeatherCatV1.11B39,2013-01-23 03:52:00,
2013-01-22 22:57:00,0.4,-14.2,30.00,West,268,1.0,2.0,49,0.00,,,0.00,WeatherCatV1.11B39,2013-01-23 03:57:00,
2013-01-22 23:02:00,0.1,-14.5,30.00,NNE,23,2.0,10.0,49,0.00,,,0.00,WeatherCatV1.11B39,2013-01-23 04:02:00,
2013-01-22 23:07:00,0.0,-14.6,30.00,ENE,75,1.0,3.0,49,0.00,,,0.00,WeatherCatV1.11B39,2013-01-23 04:07:00,
2013-01-22 23:10:00,-0.1,-14.3,30.00,SW,215,1.0,4.0,50,0.00,,,0.00,WeatherCatV1.11B39,2013-01-23 04:10:00,
2013-01-22 23:12:00,-0.3,-14.5,30.00,ESE,107,0.0,6.0,50,0.00,,,0.00,WeatherCatV1.11B39,2013-01-23 04:12:00,
2013-01-22 23:15:00,-0.1,-14.3,30.00,SE,135,1.0,4.0,50,0.00,,,0.00,WeatherCatV1.11B39,2013-01-23 04:15:00,
2013-01-22 23:20:00,-0.3,-14.5,30.00,ESE,112,2.0,6.0,50,0.00,,,0.00,WeatherCatV1.11B39,2013-01-23 04:20:00,
2013-01-22 23:25:00,-0.3,-14.5,30.00,SSE,158,1.0,9.0,50,0.00,,,0.00,WeatherCatV1.11B39,2013-01-23 04:25:00,
2013-01-22 23:30:00,-0.3,-14.1,30.00,ENE,68,1.0,4.0,51,0.00,,,0.00,WeatherCatV1.11B39,2013-01-23 04:30:00,
2013-01-22 23:35:00,-0.3,-14.1,30.00,SE,135,1.0,9.0,51,0.00,,,0.00,WeatherCatV1.11B39,2013-01-23 04:35:00,
2013-01-22 23:40:00,-0.3,-14.1,29.99,NE,45,0.0,3.0,51,0.00,,,0.00,WeatherCatV1.11B39,2013-01-23 04:40:00,
2013-01-22 23:45:00,-0.5,-13.5,30.00,NE,45,0.0,2.0,53,0.00,,,0.00,WeatherCatV1.11B39,2013-01-23 04:45:00,
2013-01-22 23:50:00,-0.8,-13.4,29.99,NE,45,1.0,3.0,54,0.00,,,0.00,WeatherCatV1.11B39,2013-01-23 04:50:00,
2013-01-22 23:55:00,-1.1,-13.3,29.99,ESE,112,1.0,4.0,55,0.00,,,0.00,WeatherCatV1.11B39,2013-01-23 04:55:00,